Flag for Canada Weather past 2 weeks in Churchill, Manitoba, Canada

Now
63 °F

Passing clouds.


Feels Like: 63 °F
Forecast: 53 / 63 °F
Wind: 12 mph from Northeast

Location: Churchill

Current Time: Jul 24, 2014 at 11:19:12 AM

Latest Report: Jul 24, 2014 at 11:00 AM


Visibility: 15 mi

Pressure: 29.92 "Hg

Humidity: 68%

Dew point: 52 °F

Location of ChurchillLocation

Historic Weather in Churchill — Graph

°F

Churchill temperature yesterday

Maximum temperature yesterday: 68 °F (at 7:00 PM)
Minimum temperature yesterday: 55 °F (at 12:00 AM)
Average temperature yesterday: 62 °F

Past Weeks' High & Low Weather Summary

 TemperatureHumidityPressure
High82 °F (Jul 16, 2:00 PM)100% (Jul 10, 12:00 AM)30.28 "Hg (Jul 10, 12:00 AM)
Low39 °F (Jul 13, 2:00 AM)33% (Jul 19, 5:00 PM)29.36 "Hg (Jul 11, 3:00 PM)
Average56 °F80%29.75 "Hg
* Reported Jul 9 10:00 AM — Jul 24 10:00 AM, Churchill, Weather by CustomWeather, © 2014

Note: Actual official high and low records may vary slightly from our data, if they occured in-between our weather recording intervals... More about our weather records

Advertising

Churchill weather history for previous 24 hours

 ConditionsComfort  
Time TempWeatherWind HumidityBarometerVisibility
10:00 AM
Jul 24
63 °FScattered clouds.8 mph73%29.93 "Hg15 mi
9:00 AM61 °FPassing clouds.5 mph77%29.94 "Hg15 mi
8:00 AM61 °FPassing clouds.6 mph77%29.94 "Hg15 mi
7:00 AM57 °FScattered clouds.3 mph88%29.95 "Hg15 mi
6:00 AM55 °FPartly sunny.6 mph94%29.95 "Hg15 mi
5:00 AM55 °FPassing clouds.6 mph94%29.96 "Hg15 mi
4:00 AM55 °FPassing clouds.3 mph88%29.96 "Hg15 mi
3:00 AM55 °FPassing clouds.5 mph88%29.97 "Hg15 mi
2:00 AM55 °FPassing clouds.6 mph88%29.98 "Hg15 mi
1:00 AM57 °FPassing clouds.6 mph82%29.98 "Hg15 mi
12:00 AM59 °FPassing clouds.6 mph82%29.99 "Hg15 mi
11:00 PM
Jul 23
63 °FPassing clouds.3 mph68%29.99 "Hg15 mi
10:00 PM64 °FPassing clouds.3 mph64%30.01 "Hg15 mi
9:00 PM64 °FPassing clouds.3 mph68%30.01 "Hg15 mi
8:00 PM66 °FScattered clouds.5 mph64%30.03 "Hg15 mi
7:00 PM68 °FScattered clouds.5 mph56%30.04 "Hg15 mi
6:00 PM66 °FScattered clouds.2 mph60%30.05 "Hg15 mi
5:00 PM66 °FPassing clouds.3 mph52%30.06 "Hg15 mi
4:00 PM63 °FPassing clouds.7 mph59%30.08 "Hg15 mi
3:00 PM63 °FScattered clouds.6 mph59%30.08 "Hg15 mi
2:00 PM61 °FScattered clouds.6 mph63%30.08 "Hg10 mi
1:00 PM59 °FScattered clouds.15 mph72%30.07 "Hg6 mi
12:00 PM61 °FPartly sunny.14 mph72%30.08 "Hg4 mi
11:00 AM63 °FPartly sunny.15 mph73%30.07 "Hg4 mi
Weather by CustomWeather, © 2014

See weather overviewHow to use our weather pages